IZ4UFQ-10 Weather Reports


Display with metric or nautical units.
time (UTC)temp
F
wind
direction
speed
MPH
gust
MPH
rain 1hr
in
rain 24hr
in
rain mn
in
humidity
%
barometer
mb
20260831002357 75 212 0.0 0.0 0.00 0.00 0.00 63 1013.7
20260831001856 75 212 0.0 0.0 0.00 0.00 0.00 63 1013.7
20260831001356 75 212 0.0 0.0 0.00 0.00 0.00 63 1013.6
20260831000856 75 212 0.0 0.0 0.00 0.00 0.00 63 1013.6
20260831000355 75 212 0.0 0.0 0.00 0.00 0.00 64 1013.6
20260830235855 75 212 0.0 0.0 0.00 0.00 0.00 64 1013.7
20260830235355 76 212 0.0 0.0 0.00 0.00 0.00 64 1013.7
20260830234855 76 212 0.0 0.0 0.00 0.00 0.00 65 1013.7
20260830234354 76 212 0.0 0.0 0.00 0.00 0.00 65 1013.7
20260830233854 76 212 0.0 0.0 0.00 0.00 0.00 65 1013.7
20260830233354 76 214 0.0 0.0 0.00 0.00 0.00 66 1013.7
20260830232853 76 212 0.0 0.0 0.00 0.00 0.00 66 1013.7
20260830232353 76 212 0.0 0.0 0.00 0.00 0.00 66 1013.7
20260830231853 76 212 0.0 0.0 0.00 0.00 0.00 65 1013.7
20260830231353 76 212 0.0 0.0 0.00 0.00 0.00 65 1013.6
20260830230852 76 212 0.0 0.0 0.00 0.00 0.00 64 1013.7
20260830230352 76 212 0.0 0.0 0.00 0.00 0.00 64 1013.7
20260830225852 77 214 0.0 0.0 0.00 0.00 0.00 64 1013.7
20260830225351 77 213 0.0 0.0 0.00 0.00 0.00 64 1013.7
20260830224851 77 210 0.0 0.0 0.00 0.00 0.00 63 1013.7
20260830224351 77 210 0.0 0.0 0.00 0.00 0.00 63 1013.7
20260830223850 77 211 0.0 0.0 0.00 0.00 0.00 64 1013.8
20260830223350 77 211 0.0 0.0 0.00 0.00 0.00 64 1013.8
20260830222850 77 211 0.0 0.0 0.00 0.00 0.00 64 1013.7
20260830222350 77 206 0.0 0.0 0.00 0.00 0.00 64 1013.7
20260830221849 78 218 0.0 0.0 0.00 0.00 0.00 65 1013.7
20260830221349 78 218 0.0 0.0 0.00 0.00 0.00 64 1013.6
20260830220849 78 218 0.0 0.0 0.00 0.00 0.00 64 1013.7
20260830220348 78 134 0.0 0.0 0.00 0.00 0.00 64 1013.6
20260830215848 78 134 0.0 0.0 0.00 0.00 0.00 64 1013.6
20260830215348 78 134 0.0 0.0 0.00 0.00 0.00 63 1013.6
20260830214848 78 133 0.0 0.0 0.00 0.00 0.00 63 1013.6
20260830214347 78 133 0.0 0.0 0.00 0.00 0.00 63 1013.6
20260830213847 78 133 0.0 0.0 0.00 0.00 0.00 63 1013.6
20260830213347 78 133 0.0 0.0 0.00 0.00 0.00 63 1013.6
20260830212846 78 134 0.0 0.0 0.00 0.00 0.00 63 1013.6
20260830212346 78 134 0.0 0.0 0.00 0.00 0.00 63 1013.6
20260830211846 78 133 0.0 0.0 0.00 0.00 0.00 63 1013.6
20260830211346 78 133 0.0 0.0 0.00 0.00 0.00 63 1013.5
20260830210845 78 133 0.0 0.0 0.00 0.00 0.00 63 1013.6
20260830210345 78 133 0.0 0.0 0.00 0.00 0.00 63 1013.6
20260830205845 78 133 0.0 0.0 0.00 0.00 0.00 63 1013.6
20260830205344 78 133 0.0 0.0 0.00 0.00 0.00 63 1013.5
20260830204844 78 133 0.0 0.0 0.00 0.00 0.00 63 1013.6
20260830204344 78 133 0.0 0.0 0.00 0.00 0.00 63 1013.6
20260830203844 78 133 0.0 0.0 0.00 0.00 0.00 63 1013.5
20260830203343 78 133 0.0 0.0 0.00 0.00 0.00 63 1013.5
20260830202843 78 133 0.0 0.0 0.00 0.00 0.00 63 1013.5
20260830202343 78 134 0.0 0.0 0.00 0.00 0.00 63 1013.5
20260830201842 78 133 0.0 0.0 0.00 0.00 0.00 63 1013.6
20260830201342 78 133 0.0 0.0 0.00 0.00 0.00 63 1013.6
20260830200842 79 133 0.0 0.0 0.00 0.00 0.00 62 1013.6
20260830200341 79 133 0.0 0.0 0.00 0.00 0.00 62 1013.6
20260830195841 79 134 0.0 0.0 0.00 0.00 0.00 61 1013.6
20260830195341 79 133 0.0 0.0 0.00 0.00 0.00 61 1013.5
20260830194841 79 133 0.0 0.0 0.00 0.00 0.00 60 1013.6
20260830194340 80 133 0.0 0.0 0.00 0.00 0.00 60 1013.5
20260830193840 80 133 0.0 0.0 0.00 0.00 0.00 60 1013.5
20260830193340 80 134 0.0 0.0 0.00 0.00 0.00 59 1013.6
20260830192840 81 133 0.0 0.0 0.00 0.00 0.00 59 1013.5
20260830192339 81 133 0.0 0.0 0.00 0.00 0.00 58 1013.5
20260830191839 81 134 0.0 0.0 0.00 0.00 0.00 58 1013.5
20260830191339 81 133 0.0 0.0 0.00 0.00 0.00 57 1013.5
20260830190838 82 133 0.0 0.0 0.00 0.00 0.00 56 1013.4
20260830190338 82 133 0.0 0.0 0.00 0.00 0.00 56 1013.4
20260830185838 82 118 0.0 0.0 0.00 0.00 0.00 56 1013.4
20260830185338 83 115 0.0 0.0 0.00 0.00 0.00 55 1013.3
20260830184837 83 115 0.0 0.0 0.00 0.00 0.00 55 1013.3
20260830184337 83 115 0.0 0.0 0.00 0.00 0.00 54 1013.2
20260830183837 83 115 0.0 0.0 0.00 0.00 0.00 54 1013.2
20260830183336 84 109 0.0 0.0 0.00 0.00 0.00 53 1013.1
20260830182836 84 108 0.0 0.0 0.00 0.00 0.00 53 1013.1
20260830182336 84 110 0.0 0.0 0.00 0.00 0.00 52 1013.0
20260830181836 84 110 0.0 0.0 0.00 0.00 0.00 51 1012.9
20260830181335 85 35 0.0 0.0 0.00 0.00 0.00 48 1012.9
20260830180835 86 35 0.0 0.0 0.00 0.00 0.00 47 1012.7
20260830180335 86 35 0.0 0.0 0.00 0.00 0.00 44 1012.6
20260830175834 87 35 0.0 0.0 0.00 0.00 0.00 44 1012.5
20260830175334 87 35 0.0 0.0 0.00 0.00 0.00 43 1012.5
20260830174834 87 35 0.0 0.0 0.00 0.00 0.00 43 1012.5
20260830174333 87 35 0.0 0.0 0.00 0.00 0.00 43 1012.4
20260830173833 87 33 0.0 0.0 0.00 0.00 0.00 42 1012.4
20260830173333 87 14 0.0 0.0 0.00 0.00 0.00 42 1012.3
20260830172833 88 10 0.0 0.0 0.00 0.00 0.00 42 1012.3
20260830172332 88 10 0.0 0.0 0.00 0.00 0.00 42 1012.3
20260830171832 88 10 0.0 0.0 0.00 0.00 0.00 42 1012.3
20260830171332 88 4 0.0 0.0 0.00 0.00 0.00 42 1012.3
20260830170831 88 359 0.0 0.0 0.00 0.00 0.00 41 1012.3
20260830170331 88 10 0.0 0.0 0.00 0.00 0.00 41 1012.4
20260830165831 88 10 0.0 0.0 0.00 0.00 0.00 41 1012.4
20260830165331 89 8 0.0 0.0 0.00 0.00 0.00 42 1012.4
20260830164830 89 36 0.0 0.0 0.00 0.00 0.00 42 1012.4
20260830164330 89 27 0.0 0.0 0.00 0.00 0.00 41 1012.4
20260830163830 89 359 0.0 0.0 0.00 0.00 0.00 41 1012.4
20260830163329 89 36 0.0 0.0 0.00 0.00 0.00 41 1012.4
20260830162829 89 36 0.0 0.0 0.00 0.00 0.00 41 1012.3
20260830162329 89 41 0.0 0.0 0.00 0.00 0.00 40 1012.3
20260830161829 89 65 0.0 0.0 0.00 0.00 0.00 40 1012.3
20260830161328 89 65 0.0 0.0 0.00 0.00 0.00 40 1012.3
20260830160828 89 18 0.0 0.0 0.00 0.00 0.00 40 1012.3
20260830160328 89 31 0.0 0.0 0.00 0.00 0.00 40 1012.4
20260830155827 89 26 0.0 0.0 0.00 0.00 0.00 40 1012.4
20260830155327 89 21 0.0 0.0 0.00 0.00 0.00 40 1012.4
20260830154827 90 4 0.0 0.0 0.00 0.00 0.00 40 1012.4
20260830154327 90 12 0.0 0.0 0.00 0.00 0.00 40 1012.4
20260830153827 90 359 0.0 0.0 0.00 0.00 0.00 40 1012.4
20260830153326 90 327 0.0 0.0 0.00 0.00 0.00 40 1012.4
20260830152826 90 317 0.0 0.0 0.00 0.00 0.00 40 1012.4
20260830152325 90 328 0.0 0.0 0.00 0.00 0.00 40 1012.4
20260830151825 90 45 0.0 0.0 0.00 0.00 0.00 40 1012.5
20260830151325 91 247 0.0 0.0 0.00 0.00 0.00 38 1012.5
20260830150825 91 249 0.0 0.0 0.00 0.00 0.00 38 1012.4
20260830150324 90 354 0.0 0.0 0.00 0.00 0.00 38 1012.4
20260830145824 90 354 0.0 0.0 0.00 0.00 0.00 38 1012.5
20260830145324 90 262 0.0 0.0 0.00 0.00 0.00 39 1012.5
20260830144823 89 271 0.0 0.0 0.00 0.00 0.00 39 1012.5
20260830144323 89 354 0.0 0.0 0.00 0.00 0.00 40 1012.6
20260830143823 89 19 0.0 0.0 0.00 0.00 0.00 41 1012.6
20260830143322 89 22 0.0 0.0 0.00 0.00 0.00 40 1012.6
20260830142822 89 350 0.0 0.0 0.00 0.00 0.00 41 1012.6
20260830142322 89 334 0.0 0.0 0.00 0.00 0.00 41 1012.7
20260830141822 89 349 0.0 0.0 0.00 0.00 0.00 41 1012.8
20260830141321 89 354 0.0 0.0 0.00 0.00 0.00 41 1012.8
20260830140821 89 28 0.0 0.0 0.00 0.00 0.00 41 1012.8
20260830140321 89 39 0.0 0.0 0.00 0.00 0.00 41 1012.9
20260830135820 89 41 0.0 0.0 0.00 0.00 0.00 39 1013.0
20260830135320 90 20 0.0 0.0 0.00 0.00 0.00 39 1013.0
20260830134820 90 359 0.0 0.0 0.00 0.00 0.00 39 1013.1
20260830134320 89 359 0.0 0.0 0.00 0.00 0.00 39 1013.1
20260830133819 89 359 0.0 0.0 0.00 0.00 0.00 40 1013.2
20260830133319 89 354 0.0 0.0 0.00 0.00 0.00 41 1013.2
20260830132819 89 4 0.0 0.0 0.00 0.00 0.00 39 1013.2
20260830132319 89 337 0.0 0.0 0.00 0.00 0.00 40 1013.3
20260830131818 89 332 0.0 0.0 0.00 0.00 0.00 40 1013.4
20260830131318 88 338 0.0 0.0 0.00 0.00 0.00 40 1013.4
20260830130818 88 334 0.0 0.0 0.00 0.00 0.00 40 1013.5
20260830130317 89 354 0.0 0.0 0.00 0.00 0.00 40 1013.6
20260830125817 89 300 0.0 0.0 0.00 0.00 0.00 39 1013.6
20260830125317 89 225 0.0 0.0 0.00 0.00 0.00 38 1013.6
20260830124816 89 339 0.0 0.0 0.00 0.00 0.00 39 1013.7
20260830124316 88 341 0.0 0.0 0.00 0.00 0.00 39 1013.7
20260830123816 88 339 0.0 0.0 0.00 0.00 0.00 39 1013.8
20260830123316 88 359 0.0 0.0 0.00 0.00 0.00 41 1013.8
20260830122815 88 36 0.0 0.0 0.00 0.00 0.00 42 1013.8
20260830122315 87 45 0.0 0.0 0.00 0.00 0.00 43 1013.9
20260830121815 87 83 0.0 0.0 0.00 0.00 0.00 43 1013.8
20260830121315 87 89 0.0 0.0 0.00 0.00 0.00 43 1013.9
20260830120814 87 91 0.0 0.0 0.00 0.00 0.00 43 1013.9
20260830120314 87 15 0.0 0.0 0.00 0.00 0.00 43 1014.0
20260830115814 87 318 0.0 0.0 0.00 0.00 0.00 43 1013.9
20260830115313 87 354 0.0 0.0 0.00 0.00 0.00 44 1014.0
20260830114813 87 328 0.0 0.0 0.00 0.00 0.00 44 1014.0
20260830114313 86 329 0.0 0.0 0.00 0.00 0.00 43 1014.0
20260830113812 86 329 0.0 0.0 0.00 0.00 0.00 43 1014.0
20260830113312 86 332 0.0 0.0 0.00 0.00 0.00 44 1014.0
20260830112812 86 294 0.0 0.0 0.00 0.00 0.00 44 1014.0
20260830112312 86 295 0.0 0.0 0.00 0.00 0.00 45 1014.0
20260830111811 85 55 0.0 0.0 0.00 0.00 0.00 46 1014.0
20260830111311 85 23 0.0 0.0 0.00 0.00 0.00 46 1014.0
20260830110811 85 324 0.0 0.0 0.00 0.00 0.00 46 1014.0
20260830110311 85 48 0.0 0.0 0.00 0.00 0.00 47 1014.1
20260830105810 85 359 0.0 0.0 0.00 0.00 0.00 46 1014.1
20260830105310 86 46 0.0 0.0 0.00 0.00 0.00 44 1014.2
20260830104810 86 266 0.0 0.0 0.00 0.00 0.00 44 1014.2
20260830104309 86 247 0.0 0.0 0.00 0.00 0.00 44 1014.2
20260830103809 86 238 0.0 0.0 0.00 0.00 0.00 43 1014.2
20260830103309 86 264 0.0 0.0 0.00 0.00 0.00 44 1014.3
20260830102808 85 272 0.0 0.0 0.00 0.00 0.00 44 1014.4
20260830102308 85 268 0.0 0.0 0.00 0.00 0.00 45 1014.5
20260830101808 85 261 0.0 0.0 0.00 0.00 0.00 44 1014.5
20260830101308 85 241 0.0 0.0 0.00 0.00 0.00 44 1014.5
20260830100807 84 247 0.0 0.0 0.00 0.00 0.00 45 1014.6
20260830100307 84 253 0.0 0.0 0.00 0.00 0.00 43 1014.7
20260830095807 84 248 0.0 0.0 0.00 0.00 0.00 42 1014.7
20260830095306 83 241 0.0 0.0 0.00 0.00 0.00 42 1014.8
20260830094806 83 232 0.0 0.0 0.00 0.00 0.00 41 1014.8
20260830094306 83 224 0.0 0.0 0.00 0.00 0.00 40 1014.9
20260830093806 83 343 0.0 0.0 0.00 0.00 0.00 40 1014.9
20260830093305 82 307 0.0 0.0 0.00 0.00 0.00 40 1015.0
20260830092805 82 340 0.0 0.0 0.00 0.00 0.00 39 1015.1
20260830092306 82 354 0.0 0.0 0.00 0.00 0.00 39 1015.1
20260830091804 82 316 0.0 0.0 0.00 0.00 0.00 39 1015.1
20260830091304 82 287 0.0 0.0 0.00 0.00 0.00 39 1015.1
20260830090804 82 341 0.0 0.0 0.00 0.00 0.00 39 1015.1
20260830090304 81 282 0.0 0.0 0.00 0.00 0.00 39 1015.1
20260830085803 81 312 0.0 0.0 0.00 0.00 0.00 39 1015.1
20260830085306 81 314 0.0 0.0 0.00 0.00 0.00 39 1015.1
20260830084803 81 320 0.0 0.0 0.00 0.00 0.00 39 1015.1
20260830084302 80 297 0.0 0.0 0.00 0.00 0.00 40 1015.2
20260830083802 80 302 0.0 0.0 0.00 0.00 0.00 40 1015.1
20260830083302 80 308 0.0 0.0 0.00 0.00 0.00 41 1015.2
20260830082802 79 243 0.0 0.0 0.00 0.00 0.00 41 1015.1
20260830082301 78 285 0.0 0.0 0.00 0.00 0.00 41 1015.2
20260830081801 78 296 0.0 0.0 0.00 0.00 0.00 41 1015.2
20260830081301 78 316 0.0 0.0 0.00 0.00 0.00 40 1015.2
20260830080800 78 314 0.0 0.0 0.00 0.00 0.00 40 1015.2
20260830080300 78 268 0.0 0.0 0.00 0.00 0.00 40 1015.2
20260830075800 78 283 0.0 0.0 0.00 0.00 0.00 39 1015.2
20260830075300 78 295 0.0 0.0 0.00 0.00 0.00 38 1015.2
20260830074759 78 289 0.0 0.0 0.00 0.00 0.00 37 1015.1
20260830074259 78 270 0.0 0.0 0.00 0.00 0.00 37 1015.2
20260830073759 78 274 0.0 0.0 0.00 0.00 0.00 37 1015.1
20260830073258 77 253 0.0 0.0 0.00 0.00 0.00 37 1015.0
20260830072758 77 270 0.0 0.0 0.00 0.00 0.00 37 1014.9
20260830072258 78 270 0.0 0.0 0.00 0.00 0.00 36 1014.8
20260830071757 78 286 0.0 0.0 0.00 0.00 0.00 36 1014.9
20260830071257 77 285 0.0 0.0 0.00 0.00 0.00 38 1014.8
20260830070757 77 210 0.0 0.0 0.00 0.00 0.00 39 1014.7
20260830070257 76 210 0.0 0.0 0.00 0.00 0.00 39 1014.7
20260830065756 76 227 0.0 0.0 0.00 0.00 0.00 39 1014.7
20260830065256 76 241 0.0 0.0 0.00 0.00 0.00 40 1014.7
20260830064756 76 236 0.0 0.0 0.00 0.00 0.00 40 1014.6
20260830064255 76 223 0.0 0.0 0.00 0.00 0.00 41 1014.5
20260830063755 75 223 0.0 0.0 0.00 0.00 0.00 42 1014.5
20260830063255 75 219 0.0 0.0 0.00 0.00 0.00 42 1014.5
20260830062755 74 229 0.0 0.0 0.00 0.00 0.00 43 1014.5
20260830062254 74 223 0.0 0.0 0.00 0.00 0.00 44 1014.6
20260830061754 73 218 0.0 0.0 0.00 0.00 0.00 44 1014.6
20260830061254 73 222 0.0 0.0 0.00 0.00 0.00 44 1014.6
20260830060753 72 218 0.0 0.0 0.00 0.00 0.00 45 1014.5
20260830060253 72 228 0.0 0.0 0.00 0.00 0.00 45 1014.5
20260830055753 71 212 0.0 0.0 0.00 0.00 0.00 45 1014.5
20260830055253 71 204 0.0 0.0 0.00 0.00 0.00 45 1014.5
20260830054752 71 212 0.0 0.0 0.00 0.00 0.00 46 1014.4
20260830054252 71 226 0.0 0.0 0.00 0.00 0.00 45 1014.4
20260830053752 71 222 0.0 0.0 0.00 0.00 0.00 46 1014.4
20260830053251 71 224 0.0 0.0 0.00 0.00 0.00 46 1014.4
20260830052751 70 231 0.0 0.0 0.00 0.00 0.00 46 1014.3
20260830052251 70 221 0.0 0.0 0.00 0.00 0.00 47 1014.3
20260830051751 70 214 0.0 0.0 0.00 0.00 0.00 47 1014.2
20260830051250 70 214 0.0 0.0 0.00 0.00 0.00 47 1014.2
20260830050750 70 203 0.0 0.0 0.00 0.00 0.00 47 1014.2
20260830050250 70 187 0.0 0.0 0.00 0.00 0.00 48 1014.2
20260830045749 69 217 0.0 0.0 0.00 0.00 0.00 48 1014.1
20260830045249 69 214 0.0 0.0 0.00 0.00 0.00 48 1014.1
20260830044749 69 204 0.0 0.0 0.00 0.00 0.00 48 1014.0
20260830044249 69 234 0.0 0.0 0.00 0.00 0.00 48 1014.0
20260830043748 69 201 0.0 0.0 0.00 0.00 0.00 48 1014.1
20260830043248 69 224 0.0 0.0 0.00 0.00 0.00 48 1014.2
20260830042748 69 212 0.0 0.0 0.00 0.00 0.00 49 1014.2
20260830042247 69 212 0.0 0.0 0.00 0.00 0.00 49 1014.1
20260830041747 69 212 0.0 0.0 0.00 0.00 0.00 49 1014.1
20260830041247 69 192 0.0 0.0 0.00 0.00 0.00 48 1014.1
20260830040746 69 215 0.0 0.0 0.00 0.00 0.00 48 1014.1
20260830040246 69 211 0.0 0.0 0.00 0.00 0.00 49 1014.1
20260830035746 69 218 0.0 0.0 0.00 0.00 0.00 49 1014.1
20260830035246 69 228 0.0 0.0 0.00 0.00 0.00 49 1014.1
20260830034745 69 229 0.0 0.0 0.00 0.00 0.00 50 1014.1
20260830034245 69 229 0.0 0.0 0.00 0.00 0.00 49 1014.1
20260830033745 69 239 0.0 0.0 0.00 0.00 0.00 49 1014.1
20260830033245 69 239 0.0 0.0 0.00 0.00 0.00 50 1014.1
20260830032744 69 240 0.0 0.0 0.00 0.00 0.00 50 1014.1
20260830032244 69 250 0.0 0.0 0.00 0.00 0.00 50 1014.1
20260830031744 70 258 0.0 0.0 0.00 0.00 0.00 49 1014.0
20260830031243 70 259 0.0 0.0 0.00 0.00 0.00 49 1014.0
20260830030743 70 259 0.0 0.0 0.00 0.00 0.00 49 1014.0
20260830030243 70 261 0.0 0.0 0.00 0.00 0.00 48 1014.0
20260830025742 70 263 0.0 0.0 0.00 0.00 0.00 48 1014.0
20260830025243 70 263 0.0 0.0 0.00 0.00 0.00 48 1014.0
20260830024742 70 264 0.0 0.0 0.00 0.00 0.00 48 1013.9
20260830024242 70 264 0.0 0.0 0.00 0.00 0.00 47 1013.9
20260830023741 70 264 0.0 0.0 0.00 0.00 0.00 47 1013.8
20260830023241 70 264 0.0 0.0 0.00 0.00 0.00 46 1013.9
20260830022741 70 264 0.0 0.0 0.00 0.00 0.00 45 1013.9
20260830022240 71 264 0.0 0.0 0.00 0.00 0.00 45 1014.0
20260830021740 71 264 0.0 0.0 0.00 0.00 0.00 45 1014.0
20260830021240 71 264 0.0 0.0 0.00 0.00 0.00 45 1014.1
20260830020740 71 264 0.0 0.0 0.00 0.00 0.00 45 1014.1
20260830020239 71 265 0.0 0.0 0.00 0.00 0.00 45 1014.1
20260830015739 71 272 0.0 0.0 0.00 0.00 0.00 45 1014.1
20260830015239 71 285 0.0 0.0 0.00 0.00 0.00 46 1014.1
20260830014738 71 285 0.0 0.0 0.00 0.00 0.00 45 1014.0
20260830014238 71 285 0.0 0.0 0.00 0.00 0.00 45 1013.9
20260830013738 72 285 0.0 0.0 0.00 0.00 0.00 45 1014.0
20260830013238 72 285 0.0 0.0 0.00 0.00 0.00 44 1014.0
20260830012737 72 285 0.0 0.0 0.00 0.00 0.00 44 1014.0
20260830012237 73 285 0.0 0.0 0.00 0.00 0.00 43 1014.0
20260830011737 73 286 0.0 0.0 0.00 0.00 0.00 42 1014.0
20260830011236 74 288 0.0 0.0 0.00 0.00 0.00 41 1014.0
20260830010736 74 225 0.0 0.0 0.00 0.00 0.00 40 1014.0
20260830010236 75 222 0.0 0.0 0.00 0.00 0.00 38 1013.9
20260830005736 75 222 0.0 0.0 0.00 0.00 0.00 38 1013.9
20260830005307 75 222 0.0 0.0 0.00 0.00 0.00 37 1013.8
20260830005235 75 222 0.0 0.0 0.00 0.00 0.00 37 1013.8
20260830004735 75 219 0.0 0.0 0.00 0.00 0.00 38 1013.7
20260830004235 75 218 0.0 0.0 0.00 0.00 0.00 38 1013.7
20260830003734 75 214 0.0 0.0 0.00 0.00 0.00 37 1013.7
20260830003234 75 239 0.0 0.0 0.00 0.00 0.00 37 1013.7
20260830002734 75 253 0.0 0.0 0.00 0.00 0.00 38 1013.7